Main page
Satellite images Climate Cyclones Lightning AirportsFAQ Languages Contact Newsletter About
Weather : Europe Africa North America South America Asia Australia-Oceania Others

, Phuket, Phuket International Airport

48565

latitude: , longitude: Thailand, elevation: 08-07N m


METAR: VTSP 160900Z 30006KT 270V010 9999 FEW020 SCT100 30/22 Q1008 NOSIG